Location: Unspecified
(22.6800°N, 112.2000°E)
Time: 02:15:55
(UTC+08:00)

BlueWalker 3 - Visible Passes

Search period start: 28 February 2024 00:00
Search period end: 09 March 2024 00:00
Orbit: 486 x 500 km, 53.2° (Epoch: 26 February)

Date Brightness Start Highest point End Pass type
(mag) Time Alt. Az. Time Alt. Az. Time Alt. Az.
05 Mar 4.3 19:53:14 10° NNE 19:53:33 11° NNE 19:53:33 11° NNE visible
06 Mar 3.9 19:29:24 10° NNE 19:31:11 13° NE 19:31:11 13° NE visible
07 Mar 4.0 19:05:33 10° NNE 19:07:10 12° NE 19:08:47 10° ENE visible
07 Mar 4.3 20:41:59 10° NW 20:43:31 22° WNW 20:43:31 22° WNW visible
08 Mar 2.8 20:17:56 10° NW 20:21:29 45° WSW 20:21:29 45° WSW visible
